This demonstration page uses our WeatherBlox Daily Observations layout. Learn more.

Left ArrowRight Arrow

30.21309, -93.2044

Hourly Observations for July 18, 2021

Temp ( °F °C ) Dew Point ( °F °C ) Humidity (%) Winds ( mph kmh ) Pressure ( in mb ) Visibility ( mi km ) Precip ( " mm )
12:15 am 00:15 Clear 79 26.2 76 24.6 91 91 S 6 9 30.09 1019 10 16 0.00 0.00
12:35 am 00:35 Clear 78 25.8 76 24.3 91 91 S 5 7 30.09 1019 10 16 0.00 0.00
12:55 am 00:55 Clear 78 25.7 76 24.4 93 93 SSE 3 6 30.10 1019 10 16 0.00 0.00
1:15 am 01:15 Clear 78 25.8 76 24.4 92 92 Calm 30.09 1019 10 16 0.00 0.00
1:35 am 01:35 Clear 78 25.8 76 24.5 93 93 Calm 30.09 1019 10 16 0.00 0.00
1:55 am 01:55 Clear 79 25.9 76 24.4 91 91 Calm 30.09 1019 10 16 0.00 0.00
2:15 am 02:15 Clear 78 25.7 76 24.3 92 92 ENE 3 6 30.09 1019 10 16 0.00 0.00
2:35 am 02:35 Partly Cloudy 78 25.7 76 24.4 93 93 Calm 30.09 1019 10 16 0.00 0.00
2:55 am 02:55 Clear 78 25.5 76 24.4 94 94 E 3 6 30.09 1019 10 16 0.00 0.00
3:15 am 03:15 Clear 77 25 75 24.1 95 95 ESE 3 6 30.08 1019 10 16 0.00 0.00
3:35 am 03:35 Clear 77 25.1 76 24.3 95 95 E 5 7 30.08 1019 10 16 0.00 0.00
3:55 am 03:55 Clear 77 25 75 24.1 95 95 E 5 7 30.09 1019 10 16 0.00 0.00
4:15 am 04:15 Clear 77 24.9 75 24 95 95 E 3 6 30.09 1019 10 16 0.00 0.00
4:35 am 04:35 Clear 77 25 76 24.2 95 95 Calm 30.09 1019 10 16 0.00 0.00
4:55 am 04:55 Clear 77 24.9 75 24 95 95 Calm 30.09 1019 10 16 0.00 0.00
5:15 am 05:15 Clear 77 25 76 24.2 95 95 Calm 30.10 1019 10 16 0.00 0.00
5:35 am 05:35 Clear 77 24.8 75 23.9 95 95 ESE 3 6 30.10 1019 10 16 0.00 0.00
6:00 am 06:00 Mostly Clear 75 24 75 24 100 100 Calm 30.10 1019 10 16 0.00 0.00
6:47 am 06:47 Partly Cloudy 77 25 75 24 94 94 Calm 30.12 1020 10 16 0.00 0.00
7:53 am 07:53 Partly Cloudy 81 27 75 24 84 84 Calm 30.12 1020 10 16 0.00 0.00
8:51 am 08:51 Partly Cloudy 82 28 75 24 79 79 Calm 30.13 1020 10 16 0.00 0.00
9:48 am 09:48 Mostly Cloudy 86 30 75 24 70 70 ESE 6 9 30.13 1020 10 16 0.00 0.00
10:50 am 10:50 Mostly Cloudy with Strong Thunderstorms 75 24 72 22 89 89 NW 16 26 30.14 1021 2 3 0.00 0.00
11:09 am 11:09 Mostly Cloudy with Thunderstorms 79 26 72 22 79 79 NNW 7 11 30.13 1020 7 11 0.00 0.00
11:51 am 11:51 Mostly Cloudy 81 27 73 23 79 79 SSW 85 137 30.14 1021 10 16 0.00 0.00
12:55 pm 12:55 Partly Cloudy 86 30 75 24 70 70 SSW 6 9 30.11 1020 10 16 0.00 0.00
1:51 pm 13:51 Partly Cloudy 88 31 75 24 66 66 SSW 8 13 30.10 1019 10 16 0.00 0.00
2:50 pm 14:50 Partly Cloudy 88 31 77 25 70 70 S 14 22 30.08 1019 10 16 0.00 0.00
3:50 pm 15:50 Partly Cloudy 90 32 75 24 63 63 S 8 13 30.06 1018 10 16 0.00 0.00
4:55 pm 16:55 Partly Cloudy 90 32 75 24 63 63 SSW 9 15 30.04 1017 10 16 0.00 0.00
5:50 pm 17:50 Partly Cloudy 90 32 73 23 59 59 SSW 12 19 30.05 1018 10 16 0.00 0.00
6:50 pm 18:50 Partly Cloudy 88 31 73 23 62 62 SW 10 17 30.04 1017 10 16 0.00 0.00
7:55 pm 19:55 Mostly Sunny 86 30 75 24 70 70 SW 7 11 30.05 1018 10 16 0.00 0.00
8:50 pm 20:50 Mostly Clear 84 29 75 24 74 74 SSW 6 9 30.05 1018 10 16 0.00 0.00
9:50 pm 21:50 Mostly Clear 82 28 75 24 79 79 SSW 6 9 30.05 1018 10 16 0.00 0.00
10:15 pm 22:15 Clear 83 28.1 75 24.1 79 79 SW 5 7 30.05 1018 10 16 0.00 0.00
10:35 pm 22:35 Clear 82 28 75 24.1 79 79 SW 6 9 30.06 1018 10 16 0.00 0.00
10:55 pm 22:55 Partly Cloudy 82 27.9 76 24.2 80 80 SSW 6 9 30.06 1018 10 16 0.00 0.00
11:15 pm 23:15 Partly Cloudy 81 27 76 24.5 86 86 SW 3 6 30.07 1018 10 16 0.00 0.00
11:35 pm 23:35 Partly Cloudy 82 27.6 76 24.3 82 82 SSW 3 6 30.07 1018 10 16 0.00 0.00
11:55 pm 23:55 Clear 79 26.3 76 24.5 90 90 SSE 3 6 30.07 1018 10 16 0.00 0.00

Powered by AerisWeather